EW7351 Weather Reports


time (UTC)temp
F
wind
direction
speed
knots
gust
knots
rain 1hr
in
rain 24hr
in
rain mn
in
humidity
%
barometer
mb
20260510013536 78 58 0.0 0.0 0.00 0.00 0.00 59 1007.2
20260510012810 78 58 0.0 0.0 0.00 0.00 0.00 58 1007.1
20260510012026 79 58 0.0 0.0 0.00 0.00 0.00 57 1007.0
20260510011456 79 58 0.0 1.7 0.00 0.00 0.00 57 1006.9
20260510011217 80 58 0.0 1.7 0.00 0.00 0.00 56 1006.8
20260510010429 80 30 0.0 0.9 0.00 0.00 0.00 54 1006.8
20260510005900 81 30 0.0 0.9 0.00 0.00 0.00 53 1006.7
20260510005357 82 30 0.0 0.9 0.00 0.00 0.00 52 1006.7
20260510004828 82 47 0.0 0.9 0.00 0.00 0.00 51 1006.7
20260510004327 82 49 0.0 0.9 0.00 0.00 0.00 50 1006.7
20260510003758 83 49 0.0 0.9 0.00 0.00 0.00 50 1006.7
20260510003256 83 49 0.0 0.9 0.00 0.00 0.00 50 1006.7
20260510002752 84 69 0.0 2.6 0.00 0.00 0.00 49 1006.7
20260510002511 84 75 0.0 1.7 0.00 0.00 0.00 47 1006.7
20260510001722 85 49 0.0 3.5 0.00 0.00 0.00 46 1006.8
20260510001218 85 324 0.0 3.5 0.00 0.00 0.00 44 1006.8
20260510000654 86 69 0.0 3.5 0.00 0.00 0.00 43 1006.8
20260510000126 86 35 0.0 3.5 0.00 0.00 0.00 42 1006.7
20260509235623 87 66 0.0 2.6 0.00 0.00 0.00 41 1006.7
20260509235342 87 54 0.0 2.6 0.00 0.00 0.00 41 1006.7
20260509234619 87 62 0.0 2.6 0.00 0.00 0.00 42 1006.7
20260509234051 87 77 0.0 2.6 0.00 0.00 0.00 44 1006.7
20260509234035 87 15 0.0 2.6 0.00 0.00 0.00 42 1006.7
20260509233044 87 336 0.0 2.6 0.00 0.00 0.00 42 1006.7
20260509232542 87 336 0.0 2.6 0.00 0.00 0.00 43 1006.7
20260509232018 87 56 0.0 2.6 0.00 0.00 0.00 45 1006.7
20260509231448 88 68 0.0 2.6 0.00 0.00 0.00 43 1006.7
20260509230947 87 68 0.0 4.3 0.00 0.00 0.00 42 1006.8
20260509230422 87 338 0.9 4.3 0.00 0.00 0.00 40 1006.8
20260509225852 87 73 0.9 4.3 0.00 0.00 0.00 38 1006.7
20260509225351 88 329 0.9 4.3 0.00 0.00 0.00 38 1006.7
20260509224824 88 36 0.0 4.3 0.00 0.00 0.00 39 1006.7
20260509224256 88 140 0.0 4.3 0.00 0.00 0.00 41 1006.7
20260509224020 88 86 0.0 2.6 0.00 0.00 0.00 41 1006.7
20260509223250 88 252 0.9 4.3 0.00 0.00 0.00 42 1006.7
20260509222746 88 130 0.9 4.3 0.00 0.00 0.00 43 1006.7
20260509222222 89 300 0.0 2.6 0.00 0.00 0.00 45 1006.6
20260509221654 88 51 0.0 2.6 0.00 0.00 0.00 46 1006.6
20260509221410 88 314 0.0 2.6 0.00 0.00 0.00 45 1006.7
20260509220645 87 10 0.0 2.6 0.00 0.00 0.00 46 1006.7
20260509220118 87 339 0.9 5.2 0.00 0.00 0.00 47 1006.7
20260509215558 87 121 1.7 6.1 0.00 0.00 0.00 48 1006.7
20260509215058 87 349 0.9 6.1 0.00 0.00 0.00 45 1006.7
20260509214558 88 11 0.9 5.2 0.00 0.00 0.00 45 1006.8
20260509214053 88 6 0.0 3.5 0.00 0.00 0.00 48 1006.8
20260509213530 88 39 0.0 3.5 0.00 0.00 0.00 44 1006.9
20260509213000 88 9 0.9 3.5 0.00 0.00 0.00 46 1006.9
20260509212459 88 119 0.9 4.3 0.00 0.00 0.00 47 1007.1
20260509211942 88 78 0.9 4.3 0.00 0.00 0.00 47 1007.1
20260509211440 88 107 0.9 6.1 0.00 0.00 0.00 47 1007.1
20260509210940 88 82 0.9 6.1 0.00 0.00 0.00 45 1007.2
20260509210440 89 59 0.0 2.6 0.00 0.00 0.00 49 1007.3
20260509205910 88 338 0.9 5.2 0.00 0.00 0.00 48 1007.2
20260509205408 88 115 0.9 5.2 0.00 0.00 0.00 52 1007.4
20260509205104 87 155 0.0 3.5 0.00 0.00 0.00 54 1007.5
20260509204317 87 28 0.9 7.0 0.00 0.00 0.00 50 1007.6
20260509203748 86 15 1.7 7.0 0.00 0.00 0.00 47 1007.6
20260509203246 86 100 2.6 7.0 0.00 0.00 0.00 51 1007.7
20260509202733 87 330 1.7 7.0 0.00 0.00 0.00 48 1007.8
20260509202231 87 69 0.9 3.5 0.00 0.00 0.00 53 1007.9
20260509201734 87 146 0.9 3.5 0.00 0.00 0.00 53 1007.9
20260509201208 87 74 0.9 5.2 0.00 0.00 0.00 51 1008.0
20260509200705 87 1 0.9 5.2 0.00 0.00 0.00 51 1008.0
20260509200142 87 96 0.0 4.3 0.00 0.00 0.00 56 1008.0
20260509195614 86 18 0.9 4.3 0.00 0.00 0.00 52 1008.0
20260509195317 85 38 1.7 5.2 0.00 0.00 0.00 56 1008.0
20260509194739 86 26 0.9 5.2 0.00 0.00 0.00 54 1008.1
20260509194017 86 146 0.9 4.3 0.00 0.00 0.00 54 1008.2
20260509193517 86 176 0.9 4.3 0.00 0.00 0.00 57 1008.2
20260509193218 86 144 0.9 6.1 0.00 0.00 0.00 61 1008.2
20260509192428 85 357 0.9 6.1 0.00 0.00 0.00 59 1008.2
20260509191900 86 341 0.9 6.1 0.00 0.00 0.00 57 1008.3
20260509191338 86 53 0.9 6.1 0.00 0.00 0.00 58 1008.4
20260509190837 85 47 0.9 5.2 0.00 0.00 0.00 59 1008.4
20260509190316 85 77 0.9 5.2 0.00 0.00 0.00 62 1008.4
20260509185941 85 321 0.9 5.2 0.00 0.00 0.00 61 1008.5
20260509185441 84 131 1.7 11.3 0.00 0.00 0.00 61 1008.5
20260509184711 84 73 2.6 11.3 0.00 0.00 0.00 60 1008.4
20260509184212 84 347 1.7 8.7 0.00 0.00 0.00 59 1008.4
20260509183709 84 45 0.9 8.7 0.00 0.00 0.00 62 1008.4
20260509183435 83 72 1.7 7.0 0.00 0.00 0.00 62 1008.4
20260509182648 83 322 1.7 7.8 0.00 0.00 0.00 60 1008.4
20260509182149 83 83 1.7 7.8 0.00 0.00 0.00 64 1008.5
20260509181916 83 50 1.7 7.0 0.00 0.00 0.00 61 1008.6
20260509181128 83 323 1.7 7.0 0.00 0.00 0.00 60 1008.7
20260509180627 83 328 1.7 6.1 0.00 0.00 0.00 61 1008.7
20260509180338 83 63 0.9 5.2 0.00 0.00 0.00 62 1008.7
20260509175548 83 326 0.9 7.0 0.00 0.00 0.00 61 1008.8
20260509175026 83 348 0.9 7.0 0.00 0.00 0.00 62 1008.9
20260509174747 82 347 0.9 5.2 0.00 0.00 0.00 62 1009.0
20260509174024 82 336 0.9 5.2 0.00 0.00 0.00 62 1008.9
20260509173500 83 354 0.9 5.2 0.00 0.00 0.00 61 1009.0
20260509172941 83 355 0.9 6.1 0.00 0.00 0.00 64 1009.1
20260509172416 83 337 0.9 6.1 0.00 0.00 0.00 61 1009.1
20260509171850 83 249 0.9 4.3 0.00 0.00 0.00 60 1009.1
20260509171327 82 118 0.9 4.3 0.00 0.00 0.00 64 1009.2
20260509170758 82 27 0.9 4.3 0.00 0.00 0.00 64 1009.3
20260509170258 82 356 1.7 5.2 0.00 0.00 0.00 62 1009.3
20260509165755 81 359 0.9 5.2 0.00 0.00 0.00 62 1009.2
20260509165255 81 336 0.9 6.1 0.00 0.00 0.00 66 1009.1
20260509164755 81 354 0.9 6.1 0.00 0.00 0.00 66 1009.2
20260509164256 81 68 0.9 3.5 0.00 0.00 0.00 64 1009.2
20260509163943 81 8 0.9 5.2 0.00 0.00 0.00 64 1009.2
20260509163225 81 52 0.9 5.2 0.00 0.00 0.00 65 1009.3
20260509162659 80 5 0.9 3.5 0.00 0.00 0.00 66 1009.2
20260509162157 80 329 0.9 3.5 0.00 0.00 0.00 67 1009.2
20260509161633 79 22 1.7 6.1 0.00 0.00 0.00 68 1009.2
20260509161128 79 20 0.9 6.1 0.00 0.00 0.00 68 1009.1
20260509160626 79 334 1.7 6.1 0.00 0.00 0.00 68 1009.2
20260509160349 78 13 2.6 9.6 0.00 0.00 0.00 69 1009.2
20260509155623 78 326 1.7 9.6 0.00 0.00 0.00 69 1009.2
20260509155118 78 9 1.7 6.1 0.00 0.00 0.00 70 1009.1
20260509154614 78 338 1.7 5.2 0.00 0.00 0.00 69 1009.1
20260509154113 78 38 0.9 6.1 0.00 0.00 0.00 71 1009.1
20260509153609 77 358 1.7 6.1 0.00 0.00 0.00 70 1009.1
20260509153105 77 323 0.9 5.2 0.00 0.00 0.00 71 1009.1
20260509152825 77 349 1.7 5.2 0.00 0.00 0.00 72 1009.0
20260509152037 77 72 1.7 7.8 0.00 0.00 0.00 72 1008.9
20260509151512 77 337 1.7 7.8 0.00 0.00 0.00 71 1009.0
20260509150946 76 352 2.6 7.0 0.00 0.00 0.00 72 1009.0
20260509150420 76 350 2.6 5.2 0.00 0.00 0.00 73 1009.0
20260509150119 76 342 2.6 9.6 0.00 0.00 0.00 73 1009.1
20260509145349 76 351 2.6 5.2 0.00 0.00 0.00 74 1009.1
20260509144848 75 320 1.7 7.0 0.00 0.00 0.00 74 1009.2
20260509144544 75 321 1.7 7.0 0.00 0.00 0.00 76 1009.3
20260509144243 75 330 0.9 6.1 0.00 0.00 0.00 76 1009.2
20260509143251 74 9 0.9 6.1 0.00 0.00 0.00 77 1009.2
20260509142749 74 353 1.7 5.2 0.00 0.00 0.00 78 1009.2
20260509142222 74 12 1.7 5.2 0.00 0.00 0.00 78 1009.1
20260509141720 74 350 0.9 5.2 0.00 0.00 0.00 77 1009.1
20260509141216 74 17 0.9 5.2 0.00 0.00 0.00 77 1009.0
20260509140713 74 274 1.7 7.0 0.00 0.00 0.00 80 1008.9
20260509140147 73 6 1.7 7.0 0.00 0.00 0.00 79 1008.9
20260509135838 73 70 1.7 5.2 0.00 0.00 0.00 79 1008.8
20260509135114 74 37 1.7 5.2 0.00 0.00 0.00 78 1008.9
20260509134550 73 58 1.7 7.0 0.00 0.00 0.00 79 1008.8
20260509134238 73 28 1.7 7.0 0.00 0.00 0.00 81 1008.7
20260509133454 73 36 1.7 7.0 0.00 0.00 0.00 81 1008.7
20260509132941 73 54 0.9 7.0 0.00 0.00 0.00 82 1008.7
20260509132658 72 274 0.0 5.2 0.00 0.00 0.00 83 1008.7
20260509131911 72 359 1.7 4.3 0.00 0.00 0.00 84 1008.6
20260509131346 71 27 1.7 6.1 0.00 0.00 0.00 84 1008.4
20260509130820 71 347 0.0 5.2 0.00 0.00 0.00 86 1008.5
20260509130316 71 276 0.0 2.6 0.00 0.00 0.00 87 1008.6
20260509125748 70 228 0.0 2.6 0.00 0.00 0.00 88 1008.6
20260509125242 70 276 0.0 2.6 0.00 0.00 0.00 89 1008.5
20260509124740 69 221 0.0 1.7 0.00 0.00 0.00 89 1008.5
20260509124210 69 224 0.0 1.7 0.00 0.00 0.00 89 1008.7
20260509123709 68 124 0.0 0.0 0.00 0.00 0.00 89 1008.5
20260509123142 67 124 0.0 0.0 0.00 0.00 0.00 89 1008.6
20260509122618 67 124 0.0 0.0 0.00 0.00 0.00 88 1008.7
20260509122320 67 124 0.0 0.0 0.00 0.00 0.00 88 1008.5
20260509121742 67 124 0.0 0.0 0.00 0.00 0.00 88 1008.6
20260509120954 68 124 0.0 0.0 0.00 0.00 0.00 88 1008.5
20260509120710 68 124 0.0 0.0 0.00 0.00 0.00 88 1008.5
20260509115948 68 124 0.0 0.0 0.00 0.00 0.00 88 1008.5
20260509115416 68 124 0.0 0.0 0.00 0.00 0.00 88 1008.5
20260509114847 68 124 0.0 0.0 0.00 0.00 0.00 87 1008.4
20260509114345 68 124 0.0 0.0 0.00 0.00 0.00 87 1008.2
20260509113841 68 124 0.0 0.0 0.00 0.00 0.00 87 1008.2
20260509113338 69 124 0.0 0.0 0.00 0.00 0.00 87 1008.0
20260509112813 69 124 0.0 0.0 0.00 0.00 0.00 86 1007.9
20260509112246 69 124 0.0 0.0 0.00 0.00 0.00 87 1007.9
20260509111744 69 124 0.0 0.9 0.00 0.00 0.00 87 1007.9
20260509111231 69 124 0.0 2.6 0.00 0.00 0.00 87 1007.8
20260509110734 69 124 0.0 2.6 0.00 0.00 0.00 87 1007.7
20260509110424 69 124 0.9 2.6 0.00 0.00 0.00 87 1007.7
20260509105931 69 114 0.9 3.5 0.00 0.00 0.00 87 1007.5
20260509105135 69 122 0.9 3.5 0.00 0.00 0.00 87 1007.6
20260509104633 69 134 0.0 0.9 0.00 0.00 0.00 87 1007.6
20260509104109 69 230 0.0 0.0 0.00 0.00 0.00 87 1007.7
20260509103814 69 231 0.0 0.0 0.00 0.00 0.00 87 1007.7
20260509103320 69 231 0.0 0.0 0.00 0.00 0.00 87 1007.6
20260509102532 69 230 0.0 0.0 0.00 0.00 0.00 87 1007.6
20260509102003 69 230 0.0 0.0 0.00 0.00 0.00 86 1007.5
20260509101502 69 231 0.0 0.0 0.00 0.00 0.00 86 1007.6
20260509100936 69 230 0.0 0.9 0.00 0.00 0.00 86 1007.5
20260509100628 69 231 0.0 0.9 0.00 0.00 0.00 86 1007.6
20260509100130 69 230 0.0 2.6 0.00 0.00 0.00 86 1007.4
20260509095340 69 235 0.9 2.6 0.00 0.00 0.00 86 1007.3
20260509095035 69 229 1.7 5.2 0.00 0.00 0.00 87 1007.2
20260509094250 69 238 0.9 4.3 0.00 0.00 0.00 87 1007.1
20260509093720 69 241 0.9 6.1 0.00 0.00 0.00 87 1007.0
20260509093219 69 195 2.6 6.1 0.00 0.00 0.00 87 1006.8
20260509092653 69 226 3.5 7.8 0.00 0.00 0.00 87 1006.2
20260509092344 69 150 2.6 7.8 0.00 0.00 0.00 87 1006.0
20260509091622 69 139 2.6 6.1 0.00 0.00 0.00 87 1006.0
20260509091054 69 124 2.6 7.8 0.00 0.00 0.00 86 1005.9
20260509090550 69 109 2.6 7.8 0.00 0.00 0.00 86 1005.7
20260509090047 69 136 2.6 7.8 0.00 0.00 0.00 86 1005.7
20260509085543 69 128 1.7 7.8 0.00 0.00 0.00 85 1006.0
20260509085241 69 192 1.7 7.8 0.00 0.00 0.00 85 1006.2
20260509084710 69 137 3.5 9.6 0.00 0.00 0.00 85 1006.3
20260509083926 69 153 3.5 9.6 0.00 0.00 0.00 85 1006.3
20260509083650 69 149 2.6 6.1 0.00 0.00 0.00 85 1006.6
20260509082920 69 96 1.7 5.2 0.00 0.00 0.00 84 1007.0
20260509082846 69 261 1.7 5.2 0.00 0.00 0.00 84 1007.4
20260509081829 69 156 1.7 4.3 0.00 0.00 0.00 84 1007.8
20260509081324 70 146 1.7 4.3 0.00 0.00 0.00 84 1007.7
20260509081234 70 99 1.7 4.3 0.00 0.00 0.00 84 1008.0
20260509080515 70 128 0.9 4.3 0.00 0.00 0.00 84 1008.0
20260509075729 69 140 0.0 3.5 0.00 0.00 0.00 84 1008.4
20260509075227 69 134 0.0 1.7 0.00 0.00 0.00 84 1008.4
20260509074724 69 129 0.0 0.9 0.00 0.00 0.00 85 1008.5
20260509074225 69 124 0.0 0.9 0.00 0.00 0.00 85 1008.7
20260509073659 69 123 0.0 0.9 0.00 0.00 0.00 84 1008.9
20260509073139 69 205 0.0 0.0 0.00 0.00 0.00 84 1009.1
20260509072637 69 205 0.0 0.0 0.00 0.00 0.00 84 1009.1
20260509072127 69 205 0.0 0.0 0.00 0.00 0.00 84 1009.2
20260509071605 69 205 0.0 0.0 0.00 0.00 0.00 83 1009.3
20260509071324 69 205 0.0 0.0 0.00 0.00 0.00 83 1009.3
20260509070605 69 205 0.0 0.9 0.00 0.00 0.00 83 1009.2
20260509070049 69 205 0.0 0.9 0.00 0.00 0.00 83 1008.9
20260509065527 69 205 0.0 2.6 0.00 0.00 0.00 83 1008.7
20260509065025 69 252 0.0 2.6 0.00 0.00 0.00 83 1008.4
20260509064746 70 165 0.9 4.3 0.00 0.00 0.00 82 1008.2
20260509064006 70 234 0.9 4.3 0.00 0.00 0.00 83 1008.4
20260509063442 70 233 0.9 3.5 0.00 0.00 0.00 83 1008.6
20260509062927 69 259 0.9 2.6 0.00 0.00 0.00 83 1008.6
20260509062424 69 236 0.9 2.6 0.00 0.00 0.00 83 1008.6
20260509061858 69 153 0.0 1.7 0.00 0.00 0.00 83 1008.5
20260509061342 69 127 0.0 0.0 0.00 0.00 0.00 82 1008.7
20260509060816 69 131 0.0 0.0 0.00 0.00 0.00 82 1009.1
20260509060520 69 131 0.0 1.7 0.00 0.00 0.00 81 1009.0
20260509055734 70 131 0.0 1.7 0.00 0.00 0.00 81 1009.0
20260509055501 70 343 0.0 1.7 0.00 0.00 0.00 81 1009.5
20260509054710 70 221 0.9 3.5 0.00 0.00 0.00 81 1009.4
20260509054153 70 231 0.9 3.5 0.00 0.00 0.00 81 1008.9
20260509053630 70 190 0.0 0.0 0.00 0.00 0.00 80 1009.4
20260509053106 70 326 0.0 2.6 0.00 0.00 0.00 80 1009.9
20260509052827 71 326 0.9 2.6 0.00 0.00 0.00 79 1010.1
20260509052105 71 25 0.9 2.6 0.00 0.00 0.00 79 1009.9
20260509051603 71 27 0.9 3.5 0.00 0.00 0.00 79 1009.6
20260509051102 71 273 1.7 4.3 0.00 0.00 0.00 79 1008.9
20260509050543 71 172 0.9 4.3 0.00 0.00 0.00 78 1008.6
20260509050039 71 235 0.9 3.5 0.00 0.00 0.00 78 1008.7
20260509045538 71 255 0.9 3.5 0.00 0.00 0.00 78 1008.8
20260509045005 71 250 2.6 7.0 0.00 0.00 0.00 78 1008.3
20260509044436 71 152 1.7 7.0 0.00 0.00 0.00 77 1008.1
20260509043935 71 226 0.9 3.5 0.00 0.00 0.00 78 1008.3
20260509043425 71 134 1.7 4.3 0.00 0.00 0.00 78 1008.3
20260509042922 71 112 1.7 5.2 0.00 0.00 0.00 78 1008.2
20260509042355 71 108 1.7 5.2 0.00 0.00 0.00 78 1008.1
20260509041853 71 120 0.9 3.5 0.00 0.00 0.00 77 1008.4
20260509041355 71 139 0.0 1.7 0.00 0.00 0.00 77 1008.9
20260509040838 72 112 0.0 0.0 0.00 0.00 0.00 77 1009.2
20260509040340 72 112 0.0 0.0 0.00 0.00 0.00 76 1009.4
20260509040056 72 112 0.0 0.0 0.00 0.00 0.00 76 1009.4
20260509035335 72 112 0.0 0.0 0.00 0.00 0.00 76 1009.4
20260509035028 72 112 0.0 0.0 0.00 0.00 0.00 76 1009.3
20260509034303 71 112 0.0 0.0 0.00 0.00 0.00 76 1009.2
20260509033800 71 112 0.0 0.0 0.00 0.00 0.00 76 1009.0
20260509033258 71 112 0.0 0.0 0.00 0.00 0.00 75 1008.9
20260509032949 72 112 0.0 0.9 0.00 0.00 0.00 75 1008.6
20260509032230 71 112 0.0 1.7 0.00 0.00 0.00 75 1008.5
20260509031716 71 257 0.0 1.7 0.00 0.00 0.00 75 1008.5
20260509031434 71 129 0.0 0.9 0.00 0.00 0.00 75 1008.6
20260509030902 71 129 0.0 0.9 0.00 0.00 0.00 75 1008.7
20260509030116 71 129 0.0 1.7 0.00 0.00 0.00 75 1008.6
20260509025610 71 145 0.0 1.7 0.00 0.00 0.00 74 1008.5
20260509025329 71 145 0.0 1.7 0.00 0.00 0.00 74 1008.3
20260509024604 72 187 0.9 2.6 0.00 0.00 0.00 74 1008.1
20260509024104 72 226 0.9 2.6 0.00 0.00 0.00 74 1007.9
20260509023550 72 161 0.9 4.3 0.00 0.00 0.00 74 1007.9
20260509023052 72 121 0.9 4.3 0.00 0.00 0.00 73 1008.0
20260509022528 72 302 0.9 3.5 0.00 0.00 0.00 73 1007.7
20260509022028 72 165 0.9 3.5 0.00 0.00 0.00 73 1007.6
20260509021455 72 129 0.9 4.3 0.00 0.00 0.00 73 1007.6
20260509020952 72 120 0.9 4.3 0.00 0.00 0.00 72 1007.7
20260509020449 72 159 0.9 3.5 0.00 0.00 0.00 72 1007.8
20260509020158 72 113 0.9 5.2 0.00 0.00 0.00 72 1007.8
20260509015709 72 165 1.7 5.2 0.00 0.00 0.00 72 1007.7
20260509014936 73 233 1.7 7.0 0.00 0.00 0.00 72 1007.6
20260509014436 73 232 1.7 5.2 0.00 0.00 0.00 72 1007.6
20260509013906 72 217 2.6 5.2 0.00 0.00 0.00 72 1007.6